{"data":{"norad_id":47932,"epoch":"2026-05-25T05:19:57.427680Z","epoch_age_seconds":59060,"freshness":"FRESH","line1":"1 47932U 21022A   26145.22219245  .00005890  00000+0  27505-3 0  9990","line2":"2 47932  97.3926  40.9365 0006074  27.7582 332.3976 15.20179962287279","mean_motion":15.20179962,"eccentricity":0.0006074,"inclination_deg":97.3926,"raan_deg":40.9365,"arg_perigee_deg":27.7582,"mean_anomaly_deg":332.3976,"bstar":0.00027505,"rev_number":28727,"period_min":94.725626964947,"perigee_km":501.11631216191,"apogee_km":509.4783081619,"semimajor_km":6883.4343101619,"source":"CELESTRAK","updated_at":"2026-05-25T13:38:12.833552Z"}}